Back to Previous

Regional Weather Roundup

145 
ASUS44 KLZK 231105
RWRLZK

WEATHER ROUNDUP FOR ARKANSAS
NATIONAL WEATHER SERVICE LITTLE ROCK AR
600 AM CDT SAT AUG 23 2014

NOTE: "FAIR" INDICATES FEW OR NO CLOUDS BELOW 12,000 FEET WITH NO
SIGNIFICANT WEATHER AND/OR OBSTRUCTIONS TO VISIBILITY.

ARZ001-003-010-029-231200-
NORTHWEST ARKANSAS
  
CITY           SKY/WX    TMP DP  RH WIND       PRES   REMARKS
FAYETTEVILLE   CLEAR     72  69  90 S3        30.02S                  
FORT SMITH     CLEAR     76  74  93 CALM      29.98S                  
HARRISON       CLEAR     73  71  93 S3        30.03R                  
BENTONVILLE    CLEAR     73  68  83 S5        30.02S                  
ROGERS         CLEAR     75  68  78 S6        30.03S                  
SILOAM SPGS    CLEAR     73  64  73 S7        30.02S                  
HIGHFILL       CLEAR     72  68  87 S6        30.01S                  
SPRINGDALE     CLEAR     75  70  83 S5        30.04                   
$$

ARZ004-005-016-231200-
NORTH CENTRAL ARKANSAS
  
CITY           SKY/WX    TMP DP  RH WIND       PRES   REMARKS
BATESVILLE     CLEAR     79  73  83 CALM      29.99R                  
FLIPPIN        CLEAR     75  70  83 SW5       30.00S                  
MTN HOME       CLEAR     77  74  90 SW5       30.00R                  
$$

ARZ040-041-231200-
WEST CENTRAL ARKANSAS
  
CITY           SKY/WX    TMP DP  RH WIND       PRES   REMARKS
MENA           CLEAR     79  72  78 CALM      30.04R                  
MOUNT IDA      CLEAR     72  70  93 CALM      30.01R FOG              
$$

ARZ009-017-025-026-028-231200-
NORTHEAST ARKANSAS
  
CITY           SKY/WX    TMP DP  RH WIND       PRES   REMARKS
CORNING        FAIR      75  75 100 SW5       29.98R                  
JONESBORO      CLEAR     78  75  90 SW6       29.98R                  
NEWPORT        CLEAR     76  75  96 SW3       29.99R                  
WALNUT RIDGE   CLEAR     75  72  88 SW5       29.97R                  
BLYTHEVILLE    CLEAR     76  75  97 SW6       29.98R                  
$$

ARZ022-023-033-042-044-231200-
CENTRAL ARKANSAS
  
CITY           SKY/WX    TMP DP  RH WIND       PRES   REMARKS
LITTLE ROCK    CLEAR     77  73  87 CALM      30.00R                  
N LITTLE ROCK    N/A     78  74  86 W3        30.00R                  
JACKSONVILLE   CLEAR     74  74  99 CALM      30.00R                  
SEARCY           N/A     75  75 100 CALM        N/A                   
HOT SPRINGS    CLEAR     74  72  93 CALM      30.02R                  
RUSSELLVILLE   CLEAR     74  72  93 CALM      30.00R FOG              
CLINTON        FAIR      72  72 100 CALM      30.01S FOG              
$$

ARZ036-231200-
EAST ARKANSAS
  
CITY           SKY/WX    TMP DP  RH WIND       PRES   REMARKS
WEST MEMPHIS   CLEAR     77  75  93 SW5       29.99R                  
$$

ARZ050-053-066-070-073-231200-
SOUTHWEST ARKANSAS
  
CITY           SKY/WX    TMP DP  RH WIND       PRES   REMARKS
ARKADELPHIA    FOG       72  72 100 CALM      30.01R VSB 1/4          
CAMDEN         CLEAR     70  68  94 CALM      30.01R FOG              
TEXARKANA      CLEAR     75  72  90 SW5       30.01R                  
EL DORADO      CLEAR     71  70  96 CALM      30.02R                  
DE QUEEN       CLEAR     71  70  96 CALM      30.00R FOG              
$$

ARZ056-057-069-231200-
SOUTHEAST ARKANSAS
  
CITY           SKY/WX    TMP DP  RH WIND       PRES   REMARKS
PINE BLUFF     CLEAR     74  72  93 CALM      30.01R                  
STUTTGART      CLEAR     75  72  88 S6        30.01R                  
MONTICELLO     CLEAR     77  71  82 W3        30.02R                  

$$




USA.gov is the U.S. government's official web portal to all federal, state and local government web resources and services.